Flag for Switzerland Weather past 2 weeks in Schwyz, Schwyz, Switzerland

Now
42 °F

Quite cool.


Feels Like: 40 °F
Forecast: 38 / 68 °F
Wind: 3 mph from Southeast

Location: Altdorf

Current Time: Apr 20, 2015 at 2:04:27 AM

Latest Report: Apr 20, 2015 at 1:00 AM


Visibility: N/A

Pressure: 30.16 "Hg

Humidity: 89%

Dew point: 39 °F

Location of SchwyzLocation

Historic Weather in Schwyz — Graph

°F

Schwyz temperature yesterday

Maximum temperature yesterday: 58 °F (at 5:00 PM)
Minimum temperature yesterday: 34 °F (at 6:00 AM)
Average temperature yesterday: 46 °F

Past Weeks' High & Low Weather Summary

 TemperatureHumidityPressure
High70 °F (Apr 15, 5:00 PM)95% (Apr 19, 4:00 AM)30.59 "Hg (Apr 19, 4:00 AM)
Low27 °F (Apr 6, 4:00 AM)27% (Apr 10, 6:00 PM)29.92 "Hg (Apr 16, 6:00 PM)
Average49 °F65%30.26 "Hg
* Reported Apr 5 1:00 AM — Apr 20 1:00 AM, Schwyz, Weather by CustomWeather, © 2015

Note: Actual official high and low records may vary slightly from our data, if they occured in-between our weather recording intervals... More about our weather records

Advertising

Schwyz weather history for previous 24 hours

 ConditionsComfort  
Time TempWeatherWind HumidityBarometerVisibility
1:00 AM
Mon, Apr 20
42 °FQuite cool.3 mph89%30.16 "HgN/A
12:00 AM44 °FQuite cool.1 mph84%30.14 "HgN/A
11:00 PM
Sun, Apr 19
48 °FPassing clouds.2 mph78%30.11 "Hg16 mi
10:00 PM47 °FCool.2 mph79%30.10 "HgN/A
9:00 PM51 °FCool.2 mph72%30.07 "HgN/A
8:00 PM53 °FScattered clouds.2 mph68%30.04 "Hg16 mi
7:00 PM53 °FCool.2 mph69%30.01 "HgN/A
6:00 PM54 °FCool.2 mph60%30.00 "HgN/A
5:00 PM58 °FScattered clouds.2 mph54%29.98 "Hg16 mi
4:00 PM56 °FRefreshingly cool.3 mph53%30.00 "HgN/A
3:00 PM56 °FRefreshingly cool.7 mph56%30.01 "HgN/A
2:00 PM53 °FScattered clouds.6 mph63%30.02 "Hg16 mi
1:00 PM51 °FCool.7 mph66%30.03 "HgN/A
12:00 PM48 °FCool.6 mph65%30.05 "HgN/A
11:00 AM45 °FScattered clouds.7 mph68%30.06 "Hg12 mi
10:00 AM44 °FQuite cool.7 mph74%30.05 "HgN/A
9:00 AM41 °FQuite cool.3 mph87%30.06 "HgN/A
8:00 AM37 °FChilly.2 mph93%30.08 "HgN/A
7:00 AM36 °FChilly.3 mph92%30.09 "HgN/A
6:00 AM34 °FChilly.3 mph94%30.10 "HgN/A
5:00 AM36 °FChilly.No wind91%30.10 "HgN/A
4:00 AM36 °FChilly.1 mph95%30.12 "HgN/A
2:00 AM35 °FChilly.3 mph94%30.13 "HgN/A
Weather by CustomWeather, © 2015

See weather overviewHow to use our weather pages